SL-16 DEB, 28357

Orbit data source: Space-Track

SL-16 DEB, 28357 is space debris in LEO originally from a launch on Thu, 10 Jun 2004 UTC launched from the Tyuratam Missile And Space Complex (TTMTR). Debris objects in space refer to the collection of defunct objects orbiting the Earth. Examples of debris include non-operational satellites, rocket bodies, and fragments generated from explosions, collisions, or faulty payload assembly.

Loading next visibility...
Identifier
28357, 2004-021F
Orbit
LEO
Country
Flag of CISCIS
Related business
Manufacturer
Yuzhnoe
Mission
Spacecraft
Bus & Motor
SEP MOTOR COVER, Unknown motor
Mass
~1 kg wet, ~1 kg dry
Launch date (UTC)
2004-06-10 (22 years ago)
Launch vehicle
Unknown
Launch site
Tyuratam Missile And Space Complex (TTMTR)
Object type
Payload
Rocket body
Debris
Shape & HBR
Cone, 0.5 m
Radar Cross Section
0.635 m², Small (<0.1 m²)

Expand to show TLE details & history
Last TLE update: 9 hours ago

TLE from 9 hours ago
0 SL-16 DEB
1 28357U 04021F   26119.27266612  .00000067  00000-0  10119-3 0  9991
2 28357  71.0725 216.7299 0198633 163.1093 228.6890 13.73551899 96166
Epoch: 2026-04-29T06:32Z
TLE epoch observation values (Epoch: 2026-04-29T06:32:38.352Z)
Latitude
28.38631°
Longitude
-88.04214°
Altitude
1,087.999 km
Speed
7.262 km/s
True Right ascension
15h 09m 24s
True Declination
28° 14' 57"
Sunlit
Object was in full shadow at epoch
Visualization orbit readout
Latitude
Unknown
Longitude
Unknown
Altitude
Unknown
Speed
Unknown
Apparent Right ascension
Unknown
Apparent Declination
Unknown
Sunlit
N/A
Visualization observer readout
Local Sidereal Time
23:07:57
Azimuth
Unknown
Elevation
Unknown
Doppler factor
Unknown
Orbital elements
Apogee altitude
1,131.057 km
Perigee altitude
838.552 km
Semi-major axis
7,362.941 km
Eccentricity
0.01986
Inclination
71.0725°
RAAN
216.7299°
Arg. of periapsis
163.1093°
True anomaly
227.00712°
Mean anomaly
228.689°
Eccentric anomaly
227.8453°
Mean motion
3.43531 °/min
Orbital period
104.79 mins
BSTAR
0.00010119
Loading maneuver chart data...
Computing Atmospheric mass density...
Loading historical data...
Loading historical data...
Loading historical data...
Loading historical data...
Loading historical data...
Loading historical data...
Loading historical data...

Documentation

Showing up to 5 results
|